Location: Home
(42.5358°N, 72.7383°W)
Time: 03:48:30
(UTC-05:00)

FENGYUN 1C DEB - Visible Passes

Search period start: 30 November 2022 00:00
Search period end: 10 December 2022 00:00
Orbit: 754 x 913 km, 98.6° (Epoch: 28 November)

Date Brightness Start Highest point End Pass type
(mag) Time Alt. Az. Time Alt. Az. Time Alt. Az.
30 Nov ? 05:55:52 10° NE 06:00:18 23° E 06:04:34 10° SE visible
30 Nov ? 17:19:36 10° SE 17:25:01 43° ENE 17:30:31 10° N visible
30 Nov ? 19:00:32 10° SSW 19:05:28 29° W 19:10:31 10° NW visible
01 Dec ? 05:39:52 10° NE 05:43:20 17° E 05:46:42 10° SE visible
01 Dec ? 17:03:21 10° SE 17:08:25 32° ENE 17:13:32 10° N visible
01 Dec ? 18:43:13 10° SSW 18:48:36 40° W 18:54:05 10° NNW visible
02 Dec ? 05:24:40 10° ENE 05:26:19 11° E 05:27:57 10° ESE visible
02 Dec ? 16:47:18 10° ESE 16:51:51 24° ENE 16:56:26 10° N visible
02 Dec ? 18:26:07 10° S 18:31:47 55° W 18:37:32 10° NNW visible
03 Dec ? 18:09:13 10° S 18:15:00 76° WSW 18:20:53 10° NNW visible
03 Dec ? 19:55:31 10° W 19:56:16 10° W 19:56:59 10° WNW visible
04 Dec ? 06:28:36 10° NNE 06:33:55 45° E 06:38:59 10° S visible
04 Dec ? 17:52:28 10° SSE 17:58:16 81° ENE 18:04:08 10° NNW visible
04 Dec ? 19:36:00 10° WSW 19:39:14 15° W 19:42:31 10° NW visible
05 Dec ? 06:12:07 10° NNE 06:17:03 32° E 06:21:45 10° SSE visible
05 Dec ? 17:35:53 10° SSE 17:41:34 59° ENE 17:47:19 10° N visible
05 Dec ? 19:17:59 10° SW 19:22:17 21° W 19:26:38 10° NW visible
06 Dec ? 05:55:50 10° NE 06:00:07 23° E 06:04:15 10° SE visible
06 Dec ? 17:19:28 10° SE 17:24:56 44° ENE 17:30:25 10° N visible
06 Dec ? 19:00:24 10° SSW 19:05:23 29° W 19:10:24 10° NW visible
07 Dec ? 05:39:51 10° NE 05:43:09 16° E 05:46:21 10° SE visible
07 Dec ? 17:03:13 10° SE 17:08:19 33° ENE 17:13:25 10° N visible
07 Dec ? 18:43:05 10° SSW 18:48:31 40° W 18:53:59 10° NNW visible
08 Dec ? 05:24:49 10° ENE 05:26:07 11° E 05:27:25 10° E visible
08 Dec ? 16:47:10 10° ESE 16:51:45 25° ENE 16:56:18 10° N visible
08 Dec ? 18:25:59 10° S 18:31:42 55° W 18:37:25 10° NNW visible
09 Dec ? 18:09:05 10° S 18:14:55 75° WSW 18:20:45 10° NNW visible
09 Dec ? 19:55:29 10° W 19:56:08 10° W 19:56:46 10° W visible
